RH
75 73 75 74 74 74 74 74 74 75 76 75 77 77 77 79 83 73 26 19 24 55 58 42 32 30 42 49 61 66 89 96 89 68 73 53 62 54 44 45 47 50 49 52 64
77 79 79 75 74 74 74 75 74 75 75 75 77 77 79 78 74 48 30 39 44 63 35 26 24 23 24 32 45 62 87 85 82 75 66 58 56 52 47 52 66 61 60 62 65
77 79 79 78 76 75 75 76 78 76 75 73 77 76 80 74 40 8 42 47 52 59 29 20 21 18 27 29 42 59 71 66 65 58 56 55 50 48 53 58 56 62 67 68 61
77 79 78 78 76 75 75 75 76 76 75 76 76 75 79 78 8 34 52 55 64 24 22 24 20 24 32 41 35 56 50 54 52 60 56 60 53 53 62 60 44 52 57 58 56
80 78 77 76 75 75 76 77 76 75 78 76 76 75 77 36 10 12 51 53 50 22 19 21 20 28 36 33 35 43 41 47 47 56 57 57 62 72 78 51 50 55 57 57 56
78 80 78 78 79 76 76 76 76 76 76 75 74 76 60 9 15 46 44 48 37 19 15 19 20 29 32 33 37 35 48 58 63 58 60 71 78 77 76 56 57 57 57 56 58
80 81 78 78 77 77 77 77 77 77 74 74 74 72 46 12 22 45 36 35 28 15 14 18 22 30 32 27 37 48 59 64 64 62 74 77 95 83 65 56 59 57 57 56 57
82 80 80 79 78 78 79 80 80 78 74 73 76 71 18 13 26 32 20 22 13 11 12 13 22 30 32 26 42 55 58 70 73 66 75 72 82 78 67 65 70 58 56 57 57
82 82 82 80 80 81 84 87 82 77 73 75 70 56 12 36 25 24 16 17 19 13 11 11 17 28 20 24 46 50 59 58 75 65 77 84 71 75 68 75 77 66 56 54 56
84 83 83 82 82 84 89 87 79 74 69 66 59 50 31 20 23 23 20 14 15 14 13 17 22 28 20 18 36 50 37 46 55 65 65 69 71 66 65 79 69 73 60 54 54
90 89 85 83 85 85 78 72 52 54 59 25 21 29 25 23 18 22 15 12 13 14 22 23 31 37 26 19 19 21 19 35 60 58 62 64 66 66 73 79 79 78 58 53 53
92 94 86 88 86 85 79 38 29 28 32 38 37 32 26 23 23 23 17 14 12 15 24 28 37 26 18 17 17 17 19 64 71 68 64 68 69 66 65 69 67 80 72 65 52
93 94 90 86 84 82 54 32 31 26 33 24 35 30 22 21 22 23 19 16 14 26 26 33 27 18 18 18 18 18 18 56 56 70 64 63 79 78 68 68 68 83 77 67 55
92 93 88 90 67 51 39 32 32 29 25 20 19 20 22 19 22 19 16 16 19 25 23 28 19 18 18 18 17 20 15 32 62 54 54 65 64 84 74 74 72 82 83 73 63
92 87 88 88 50 39 23 32 34 24 30 22 18 15 18 19 19 22 18 16 20 21 21 24 20 21 21 19 18 19 19 22 40 55 50 64 50 57 78 83 80 71 72 80 66
92 89 87 82 81 41 37 28 21 26 36 23 15 18 18 16 18 18 19 16 16 19 19 18 16 16 16 16 16 40 35 46 53 54 47 40 43 56 85 72 67 62 58 68 68
92 91 86 63 24 35 32 25 30 34 26 28 24 18 18 18 19 20 22 20 20 26 26 21 19 17 16 17 23 47 35 60 66 62 43 51 57 40 59 60 61 63 59 59 74
91 94 86 66 52 41 29 31 40 36 32 27 21 22 22 22 25 22 23 24 20 21 23 22 19 18 17 18 20 37 27 25 42 46 34 63 57 47 66 64 58 58 57 67 66
93 58 55 44 58 44 29 39 36 34 30 28 23 24 28 27 24 27 26 22 20 19 25 28 25 20 18 14 18 33 37 22 34 41 38 54 55 62 71 67 61 60 61 70 68
74 43 29 45 45 30 31 47 36 31 31 25 28 28 29 31 29 28 28 25 18 19 20 24 26 20 19 19 20 25 21 24 31 48 42 64 63 49 77 72 64 61 59 59 64
47 28 30 40 34 30 33 31 30 24 30 24 26 29 31 31 33 33 32 25 21 22 22 24 25 23 24 24 24 23 24 26 23 29 30 45 53 70 66 67 75 59 54 58 62
36 29 31 31 26 34 25 26 33 18 20 22 24 27 30 31 31 31 27 27 26 20 20 25 23 25 24 23 23 21 25 24 26 39 38 38 41 67 68 64 68 72 72 60 57
41 36 30 27 28 30 24 18 15 15 18 21 23 25 26 30 33 30 30 23 25 19 21 24 28 24 25 21 21 23 22 21 25 35 43 28 34 77 68 69 74 77 77 77 75
41 28 27 27 28 23 25 18 17 17 22 26 26 23 26 30 32 31 26 20 19 28 44 38 32 31 20 28 25 26 24 23 19 28 32 32 53 86 82 78 82 81 77 84 78
45 41 38 28 28 24 22 18 19 19 22 24 27 29 27 32 29 32 27 21 18 32 27 25 34 34 30 26 24 25 27 41 27 25 29 33 47 55 74 80 82 87 85 87 91
46 41 46 44 45 22 31 21 19 23 24 23 24 21 26 32 32 34 30 29 27 24 27 30 39 36 35 31 32 25 23 32 42 45 43 45 47 58 63 72 83 87 88 86 84
63 58 43 52 26 20 24 21 23 24 25 24 23 22 22 20 20 20 24 26 24 29 32 34 34 35 34 36 33 31 27 28 46 56 56 47 58 67 75 78 84 84 81 82 81
Wind_Speed
10 9 9 9 9 9 9 9 8 8 8 8 9 9 9 9 11 2 7 6 6 13 10 12 5 6 4 4 3 3 4 3 1 3 3 6 5 3 8 14 6 3 13 17 18
10 10 10 10 10 9 9 8 9 9 8 8 8 9 10 8 3 9 10 8 10 13 13 15 11 9 4 3 3 1 3 6 9 3 3 6 8 9 8 7 8 15 17 19 18
12 11 10 9 9 9 9 9 8 9 9 8 7 7 9 7 3 5 5 12 11 16 10 9 12 5 2 2 2 2 2 8 13 7 5 9 10 4 13 3 9 23 23 20 18
12 11 10 9 10 9 9 9 9 8 9 9 7 6 8 4 2 5 1 14 13 7 12 12 9 6 4 5 5 2 4 10 6 11 8 9 7 8 7 3 14 19 22 20 18
12 11 10 9 9 9 8 8 7 7 7 8 7 4 2 4 6 2 11 14 11 6 12 9 14 5 6 4 5 4 2 8 7 11 10 7 10 7 5 7 17 18 17 17 15
13 12 11 10 9 8 8 7 7 6 6 5 4 4 1 4 2 3 13 13 12 6 7 12 9 4 5 3 6 3 4 7 2 13 10 13 7 6 5 8 16 17 16 15 14
14 12 11 10 9 8 8 7 7 7 5 4 3 4 3 4 6 10 13 5 9 5 7 3 4 4 3 5 1 9 10 10 11 12 7 16 7 9 8 9 16 17 14 14 12
14 14 12 9 8 7 7 7 6 5 3 2 3 2 5 2 4 9 12 7 4 5 3 1 2 1 1 1 3 4 4 8 6 9 9 6 15 14 7 11 14 16 14 13 13
13 12 11 10 8 8 9 10 5 4 5 5 2 2 1 1 2 7 9 10 7 0 2 2 2 0 3 6 5 2 4 4 9 3 10 4 6 16 13 12 15 14 15 13 12
12 13 11 10 9 9 12 3 7 9 5 4 3 3 3 4 5 4 4 16 5 3 5 5 2 5 3 6 8 8 5 3 6 10 13 9 4 15 17 13 13 11 13 14 14
12 11 10 9 7 5 3 3 4 4 4 4 1 3 2 4 8 3 6 10 7 4 5 4 7 12 9 4 5 7 6 5 4 9 9 4 10 16 18 19 13 12 12 14 15
13 11 11 8 6 3 1 3 1 3 6 6 6 6 5 2 5 9 10 5 13 13 5 6 11 6 4 6 6 4 5 5 6 5 2 8 12 14 17 19 17 12 11 10 11
13 11 11 10 6 3 3 5 3 2 4 1 4 4 3 8 6 11 11 7 15 12 11 11 3 7 8 6 7 4 4 6 3 7 3 12 9 12 13 10 11 9 6 7 9
13 11 11 8 3 2 5 0 4 2 2 2 2 3 6 4 5 6 11 4 4 12 8 8 5 10 6 6 5 8 7 7 10 7 4 2 5 8 14 14 17 13 10 10 5
13 14 9 4 3 3 2 2 4 4 3 3 3 5 5 3 14 6 5 2 8 9 6 5 10 9 6 6 6 1 3 10 7 4 3 6 3 6 14 16 20 20 18 10 11
13 13 8 3 3 5 3 2 2 3 4 2 2 4 7 4 4 5 7 3 2 6 3 5 1 3 3 3 10 9 11 9 6 2 5 6 7 7 11 19 20 22 21 16 11
16 12 4 2 1 2 2 2 3 1 2 4 3 2 7 3 5 7 8 5 3 7 10 6 7 3 3 6 7 4 11 5 4 5 3 1 7 3 11 8 18 23 24 20 10
23 13 8 4 3 4 2 1 1 1 2 1 2 5 4 3 4 3 7 6 3 3 4 8 8 8 7 10 7 15 12 7 13 6 6 5 7 2 3 6 9 19 22 18 16
18 1 2 2 8 4 1 0 1 1 2 1 3 4 2 2 2 2 2 7 5 7 2 5 4 3 6 4 10 8 9 4 4 1 5 3 3 5 3 5 10 16 19 19 17
3 2 3 3 7 2 1 1 2 2 2 1 3 2 2 2 2 2 1 2 4 1 2 6 3 2 3 4 2 7 6 8 4 8 8 4 4 4 6 7 11 16 21 21 18
1 2 6 2 2 2 2 1 2 2 1 3 3 4 4 2 2 2 1 2 2 3 3 3 3 4 3 2 2 5 5 2 3 3 9 4 4 2 7 9 11 14 16 18 19
1 3 4 3 1 2 2 1 4 2 4 5 4 4 3 3 3 2 3 1 2 1 2 2 1 1 4 3 2 1 1 5 7 7 1 4 3 3 4 9 9 9 9 12 14
3 2 2 3 1 2 2 2 6 6 6 5 5 5 3 3 3 2 1 2 0 1 2 4 1 3 4 5 3 3 3 1 1 1 8 9 3 1 9 11 8 9 10 10 9
1 3 3 3 1 2 1 2 3 4 5 5 4 1 2 4 5 3 3 3 2 3 5 2 3 4 6 3 1 0 4 2 6 6 6 6 6 9 13 14 12 12 10 8 6
3 3 2 2 2 2 1 1 3 3 4 7 4 5 2 2 2 4 3 2 3 2 2 1 2 1 5 5 3 5 6 3 6 2 8 7 11 15 18 17 14 11 9 9 6
2 1 2 3 1 3 3 3 4 3 3 5 6 8 7 4 3 2 3 3 1 2 2 1 3 1 4 2 3 2 6 4 5 3 6 3 7 5 15 15 13 12 12 10 8
1 1 2 2 2 1 1 1 4 2 4 5 1 1 6 5 3 3 2 3 2 2 3 0 4 3 3 4 4 6 6 9 6 4 5 3 4 9 14 17 15 12 12 11 9
Wind_Direction
335 331 326 321 318 318 318 318 316 317 320 323 323 323 318 328 317 190 239 227 178 164 156 139 131 135 166 169 177 194 88 76 301 146 97 140 124 75 114 122 81 100 141 133 144
332 326 321 320 318 317 316 314 314 315 316 318 321 319 313 331 299 252 241 201 203 170 152 159 150 150 151 183 191 51 93 133 195 174 153 143 114 120 133 117 88 109 112 135 149
336 331 324 316 312 310 309 311 314 313 312 312 314 313 308 313 275 248 188 192 178 172 162 155 142 138 134 190 141 118 135 164 199 210 188 139 137 90 133 146 174 147 141 151 156
339 333 327 314 304 301 302 303 306 310 309 308 306 307 307 265 159 7 93 165 154 170 147 144 155 147 150 181 178 176 203 172 165 184 164 148 109 109 52 330 143 145 146 154 164
339 336 327 318 309 299 294 293 294 300 303 301 298 292 320 201 254 9 136 145 136 149 154 158 162 154 166 187 170 225 163 185 174 173 152 127 110 110 84 112 137 142 149 158 167
340 339 335 325 312 302 298 296 295 292 290 290 288 262 115 223 84 8 154 152 149 137 153 162 177 188 132 157 206 180 160 132 183 167 140 119 84 58 245 143 146 155 162 169 174
343 340 339 334 325 318 311 302 295 289 288 274 233 253 149 268 341 110 130 152 158 148 165 216 186 220 129 153 83 136 132 105 122 139 105 94 124 204 164 167 163 168 172 174 179
343 345 341 338 328 315 302 296 285 271 251 204 190 242 247 252 357 136 128 108 125 96 173 260 230 127 263 57 107 143 152 157 162 149 139 185 195 210 185 171 173 177 181 184 184
343 344 343 341 334 323 311 304 269 200 185 161 180 265 218 164 185 174 131 130 173 353 77 200 267 262 170 169 148 101 156 140 147 166 154 206 129 184 191 184 182 178 186 189 184
339 344 346 345 343 339 325 252 116 126 141 193 248 247 223 144 143 163 140 134 128 150 130 136 183 196 162 199 187 159 146 152 127 161 171 185 113 160 180 175 186 173 192 196 194
333 338 345 343 336 337 349 144 193 183 224 237 110 301 313 77 131 173 163 118 116 171 167 152 203 201 179 181 122 121 118 130 119 157 159 162 142 158 162 176 195 186 195 206 209
331 331 339 332 325 312 186 230 221 13 299 227 238 268 267 278 117 144 185 137 149 170 156 160 214 197 163 150 146 134 127 97 106 137 142 160 156 161 170 185 180 181 198 203 203
331 329 335 337 320 174 225 235 97 38 271 280 193 205 169 176 142 168 189 138 159 155 185 183 177 156 185 170 175 179 175 158 110 150 159 157 140 167 188 178 157 144 185 158 227
328 330 341 339 241 154 246 157 126 186 298 70 194 147 142 190 115 147 194 162 157 158 152 181 130 163 177 197 204 207 202 154 144 182 153 243 154 205 182 191 181 173 178 186 189
328 337 330 292 315 226 63 22 127 195 101 353 118 127 145 193 136 168 189 195 160 145 185 141 167 176 195 213 195 235 182 181 160 119 199 179 227 129 190 204 204 188 187 179 193
326 331 329 167 231 255 359 108 214 253 80 80 102 156 151 118 123 123 181 90 98 116 95 129 89 214 196 180 197 140 120 92 90 129 239 177 227 169 185 215 205 205 196 184 184
325 318 258 246 235 15 318 193 281 21 317 31 43 106 124 70 106 148 163 152 156 172 190 191 234 240 201 196 156 208 183 151 162 191 232 163 192 289 187 214 211 201 199 191 177
329 310 200 223 287 311 234 250 322 33 26 46 60 80 103 23 44 82 145 164 99 96 152 190 198 201 171 217 189 205 231 230 207 194 191 137 219 164 241 252 238 202 192 180 177
318 171 192 263 221 272 81 43 272 189 332 51 109 86 92 95 105 119 101 169 187 200 217 177 212 162 222 179 191 176 219 291 122 66 215 161 218 211 193 210 193 191 181 184 176
323 314 25 5 160 206 86 270 290 250 340 255 88 24 119 64 127 111 152 162 151 102 288 179 205 164 138 162 139 224 153 196 238 177 215 186 261 235 202 191 184 188 189 187 184
268 110 10 98 224 72 54 287 316 332 337 31 96 95 71 87 64 92 131 136 180 101 109 157 258 132 212 60 174 166 196 185 228 286 227 191 224 131 188 185 187 190 191 187 187
18 88 24 293 75 7 19 319 335 49 13 51 91 85 67 45 79 101 142 270 85 167 192 124 222 204 69 21 275 294 70 223 229 180 281 292 197 157 191 173 173 181 180 196 194
63 89 53 291 68 53 333 30 43 31 32 23 41 44 91 85 102 49 40 357 99 130 159 169 307 213 164 162 152 55 18 43 184 175 201 225 191 99 178 162 160 169 177 183 168
169 110 71 61 18 110 113 36 94 48 63 48 34 42 67 46 55 94 46 47 5 77 95 123 104 285 277 84 84 28 6 329 250 216 184 229 167 186 185 178 170 174 167 145 148
6 71 5 134 95 147 132 59 90 37 44 30 65 30 43 62 59 48 44 14 73 38 47 348 98 140 97 102 113 80 28 29 229 283 234 187 204 193 186 178 171 151 150 135 143
24 159 112 79 250 159 354 57 109 133 8 38 86 60 71 82 43 36 349 32 6 20 54 4 128 136 158 319 270 30 42 47 39 308 249 277 220 297 162 158 154 149 147 152 153
74 127 277 8 53 113 57 85 98 133 68 53 81 94 55 29 322 324 293 75 16 280 132 123 155 157 200 352 294 214 37 45 336 309 308 228 39 151 169 166 156 153 155 146 143